Regional Weather Roundup
Issued by NWS

Home | Current Version | Previous Version | Text Only | Print | Product List | Glossary On
Versions: 1 2 3 4 5 6 7 8 9 10 11 12 13 14 15 16 17 18 19 20 21 22 23 24 25 26 27 28 29 30 31 32 33 34 35 36 37 38 39 40 41 42 43 44 45 46 47 48 49 50
000
ASCA44 KEWX 231920
RWRMX

LATIN AMERICA AND CARIBBEAN REGIONAL WEATHER ROUNDUP
NATIONAL WEATHER SERVICE AUSTIN/SAN ANTONIO TX
100 PM CST THU FEB 23 2017

NOTE: "FAIR" INDICATED FEW OR NO CLOUDS BELOW 12,000 FEET WITH NO
SIGNIFICANT WEATHER AND/OR OBSTRUCTIONS TO VISIBILITY.

BAJA CALIFORNIA

CITY           SKY/WX    TMP DP  RH WIND       PRES   REMARKS
LORETO         SUNNY     73  45  35 N28       29.92F
LA PAZ         SUNNY     79  50  36 S9        29.91F
MEXICALI       SUNNY     63  30  29 NW8       30.02S
S.J. DEL CABO  SUNNY     79  48  34 SE16      29.91F
TIJUANA        PTSUNNY   55  39  54 NW8       30.11S

NORTHWESTERN MEXICO

CITY           SKY/WX    TMP DP  RH WIND       PRES   REMARKS
CULIACAN       SUNNY     75  61  60 S8        29.91S
DURANGO        SUNNY     72  10   9 SW20      30.09F
GUAYMAS        SUNNY     77  48  36 N12       29.87F
HERMOSILLO     SUNNY     79  37  22 NW8       29.93F
CD. JUAREZ     MOSUNNY   70  37  30 W23G35    29.72S
LOS MOCHIS     MOSUNNY   73  57  56 W3        29.93F
OBREGON        PTSUNNY   70  59  68 CALM      29.91F

NORTHEASTERN MEXICO

CITY           SKY/WX    TMP DP  RH WIND       PRES   REMARKS
CHIHUAHUA      SUNNY     79  21  11 W17G30    29.88F
MATAMOROS      SUNNY     90  50  25 S20       29.69F
MONCLOVA       SUNNY     90  27  10 W18       29.73F
MONTERREY      SUNNY     93  14   5 SE6       29.68F
NUEVO LAREDO   SUNNY     93  37  14 SW8       29.65F
PIEDRAS NEGRAS SUNNY     84  46  26 CALM      29.65
REYNOSA        SUNNY     91  32  12 S16       29.66F
SALTILLO       SUNNY     88  43  20 S14       29.94
TORREON        SUNNY     81  21  11 E8        29.91F
CD. VICTORIA   SUNNY     97  27   8 S25       29.69F HX  90

WESTERN MEXICO

CITY           SKY/WX    TMP DP  RH WIND       PRES   REMARKS
AGUASCALIENTES SUNNY     72  28  20 SW7       30.15F
COLIMA         SUNNY     81  46  30 CALM      29.97F
DEL BAJIO      MOSUNNY   73  36  25 S7        30.19F
GUADALAJARA    SUNNY     77  23  13 S7        30.10F
MANZANILLO     SUNNY     81  70  69 SW8       29.87F
MAZATLAN       SUNNY     79  64  61 W12       29.90F
P. VALLARTA    SUNNY     77  70  78 SW12      29.89F
URUAPAN        SUNNY     73  46  38 S8        30.13F
ZACATECAS      SUNNY     72  23  16 SW12G23   30.16F

CENTRAL MEXICO

CITY           SKY/WX    TMP DP  RH WIND       PRES   REMARKS
CUERNAVACA     MOSUNNY   82  43  24 E2        30.02F
MEXICO CITY    SUNNY     73  32  21 SW8       30.18F
MORELIA        SUNNY     75  32  20 S12       30.13F
POZA RICA      SUNNY     93  46  20 CALM      29.81F
PUEBLA         SUNNY     70  37  30 S17       30.19F
QUERETARO      SUNNY     73  28  19 W17       30.17F
S. LUIS POTOSI SUNNY     75  21  13 W9        30.08F
TAMPICO        SUNNY     88  46  23 SW7       29.73F
TOLUCA         MOSUNNY   64  28  25 W5        30.28F

SOUTHERN MEXICO

CITY           SKY/WX    TMP DP  RH WIND       PRES   REMARKS
ACAPULCO       SUNNY     82  72  69 SW12      29.85F
B. DE HUATULCO MOSUNNY   84  70  61 S12       29.88F
OAXACA         MOSUNNY   81  39  22 S2        30.06F
P. ESCONDIDO   SUNNY     81  73  78 W18       29.92F
VERACRUZ       SUNNY     91  46  21 S3        29.76F
ZIHUATANEJO    SUNNY     84  70  61 SW7       29.89F

YUCATAN PENINSULA

CITY           SKY/WX    TMP DP  RH WIND       PRES   REMARKS
CAMPECHE       SUNNY     81  55  41 N12       29.80F
CANCUN         MOSUNNY   82  57  42 W9        29.77F
CHETUMAL       SUNNY     88  46  23 NW8       29.78F
CD. DEL CARMEN SUNNY    N/A N/A N/A SE12      29.82F
COZUMEL        MOSUNNY   82  57  42 W3        29.77F
MERIDA         PTSUNNY   86  59  39 NW8       29.79F
MINATITLAN     SUNNY     88  59  37 SE7       29.77F
TAPACHULA      MOSUNNY   91  72  52 S13       29.80F HX  98
TUX. GUTIERREZ SUNNY     88  45  22 NE17      29.84F
VILLAHERMOSA   SUNNY     86  55  35 E8        29.82F

CENTRAL AMERICA

CITY           SKY/WX    TMP DP  RH WIND       PRES   REMARKS
BELIZE CITY      N/A     86  55  35 N5        29.79F
MANAGUA        PTCLDY    91  68  46 N7        29.74F HX  95

CARIBBEAN

CITY           SKY/WX    TMP DP  RH WIND       PRES   REMARKS
ARUBA          MOSUNNY   88  72  58 E12       29.80F HX  94
KINGSTON       PTSUNNY   79  70  73 SE3       29.80S
NASSAU         MOSUNNY   82  55  39 W5        29.68F
SAN JUAN       PTSUNNY   81  72  74 SW6       29.88F
SANTO DOMINGO  MOSUNNY   86  73  66 S12       29.83F HX  93
ST. CROIX      MOSUNNY   82  64  54 SE8       29.88F
ST. KITTS      MOSUNNY   82  68  61 SW6       29.89S
ST. MAARTEN    MOSUNNY   81  72  74 SE7       29.89S
ST. THOMAS     CLOUDY    73  72  94 S6        29.88

$$





USA.gov is the U.S. government's official web portal to all federal, state and local government web resources and services.